#timestamp,LO_Frequency,Hit,StdDev 
1507302015.2,286047000.3,N
1507302035.1,286046998.3,N
1507302036.0,286046998.3,N
1507302055.8,286047000.5,N
1507302075.6,286047000.3,N
1507302095.5,286046999.7,N
1507302115.3,286047002.2,N
1507302135.2,286046999.7,N
1507302155.9,286046999.7,N
1507302175.7,286046999.7,N
1507302195.6,286047002.4,N
1507302215.4,286046999.8,N
1507302235.2,286046999.9,N
1507302255.1,286047002.4,N
1507302256.0,286047002.4,N
1507302275.8,286047000.3,N
1507302295.7,286047001.5,N
1507302315.5,286047003.4,N
1507302335.3,286047003.8,N
1507302355.2,286047004.2,N
1507302375.0,286047003.7,N
1507302375.9,286047003.7,N
1507302395.7,286047003.7,N
1507302415.6,286047003.7,N
1507302435.4,286047003.5,N
1507302455.3,286047004.1,N
1507302475.1,286047003.3,N
1507302476.0,286047003.3,N
1507302495.8,286047003.2,N
1507302515.7,286047004.1,N
1507302535.5,286047003.6,N
1507302555.3,286047004.4,N
1507302575.2,286047001.7,N
1507302595.0,286047001.7,N
1507302595.9,286047001.7,N
1507302615.8,286047004.2,N
1507302635.6,286047003.6,N
1507302655.4,286047003.2,N
1507302675.3,286047003.6,N
1507302695.1,286047001.5,N
1507302715.8,286047001.5,N
1507302735.7,286047002.1,N
1507302755.5,286047001.6,N
1507302775.4,286047002.0,N
1507302795.2,286046999.9,N
1507302815.0,286047000.0,N
1507302815.9,286047000.0,N
1507302835.8,286046998.4,N
1507302855.6,286046998.6,N
1507302875.5,286046996.6,N
1507302895.3,286046997.3,N
1507302915.1,286046996.9,N
1507302935.9,286046999.5,N
1507302955.7,286046998.8,N
1507302975.5,286046999.9,N
1507302995.4,286047001.1,N
1507303015.2,286046999.8,N
1507303035.1,286046998.2,N
1507303036.0,286046998.2,N
1507303055.8,286047001.2,N
1507303075.6,286046998.4,N
1507303095.5,286046999.2,N
1507303115.3,286046996.8,N
1507303135.1,286046997.0,N
1507303155.9,286046999.4,N
1507303175.7,286046996.6,N
1507303195.6,286046997.4,N
1507303215.4,286046997.4,N
1507303235.2,286046996.8,N
1507303255.1,286046998.9,N
1507303256.0,286046998.9,N
1507303275.8,286047000.6,N
1507303295.6,286046999.9,N
1507303315.5,286047000.7,N
1507303335.3,286046999.4,N
1507303355.2,286046999.4,N
1507303375.9,286046998.6,N
1507303395.7,286046997.0,N
1507303415.6,286046999.4,N
1507303435.4,286046998.5,N
1507303455.2,286047002.4,N
1507303475.1,286047003.9,N
1507303476.0,286047003.9,N
1507303495.8,286047003.9,N
1507303515.7,286047002.0,N
1507303535.5,286046999.7,N
1507303555.3,286047002.7,N
1507303575.2,286047002.5,N
1507303595.0,286047000.1,N
1507303595.9,286047000.1,N
1507303615.8,286047002.6,N
1507303635.6,286047002.8,N
1507303655.4,286046999.9,N
1507303675.3,286047002.8,N
1507303695.1,286046999.7,N
1507303696.0,286046999.7,N
1507303715.8,286047002.3,N
1507303735.7,286046999.7,N
1507303755.5,286047000.6,N
1507303775.4,286047000.3,N
1507303795.2,286047002.5,N
1507303815.0,286047000.5,N
1507303815.9,286047000.5,N
1507303835.8,286047000.2,N
1507303855.6,286047000.7,N
1507303875.4,286047000.7,N
1507303895.3,286047000.7,N
1507303915.1,286046999.8,N
1507303935.9,286046999.7,N
1507303955.7,286047000.6,N
1507303975.5,286047000.1,N
1507303995.4,286047002.6,N
1507304015.2,286047002.3,N
1507304035.0,286047002.8,N
1507304035.9,286047002.8,N
1507304055.8,286047000.6,N
1507304075.6,286047000.1,N
1507304095.5,286047002.4,N
1507304115.3,286047001.0,N
1507304135.1,286047000.8,N
1507304155.9,286047001.2,N
1507304175.7,286046999.4,N
1507304195.5,286046998.5,N
1507304215.4,286047001.1,N
1507304235.2,286046998.6,N
1507304255.0,286047000.5,N
1507304256.0,286047000.5,N
1507304275.8,286046998.2,N
1507304295.6,286046998.3,N
1507304315.5,286047000.8,N
1507304335.3,286046998.5,N
1507304355.1,286047000.3,N
1507304375.9,286047002.3,N
1507304395.7,286047000.0,N
1507304415.6,286047000.7,N
1507304435.4,286046998.6,N
1507304455.2,286046998.9,N
1507304475.1,286046999.5,N
1507304476.0,286046999.5,N
1507304495.8,286046999.5,N
1507304515.6,286046996.5,N
1507304535.5,286046999.1,N
1507304555.3,286046999.6,N
1507304575.2,286046998.1,N
1507304595.9,286046998.6,N
1507304615.7,286046999.1,N
1507304635.6,286046998.9,N
1507304655.4,286046999.0,N
1507304675.2,286046998.7,N
1507304695.1,286046998.7,N
1507304696.0,286046998.7,N
1507304715.8,286047001.2,N
1507304735.7,286046999.4,N
1507304755.5,286046999.4,N
1507304775.3,286047000.7,N
1507304795.2,286047000.5,N
1507304815.0,286047000.6,N
1507304815.9,286047000.6,N
1507304835.8,286046999.8,N
1507304855.6,286046998.5,N
1507304875.4,286046999.0,N
1507304895.3,286046996.9,N
1507304915.1,286046998.6,N
1507304935.8,286046999.5,N
1507304955.7,286046999.4,N
1507304975.5,286046996.9,Y
1507304995.4,286046998.4,P
1507305015.2,286046999.1,N
1507305035.0,286046999.4,N
1507305035.9,286046999.4,N
1507305055.8,286046998.4,Y
1507305075.6,286047001.0,P
1507305095.4,286047000.8,N
1507305115.3,286046998.2,N
1507305135.1,286047000.4,N
1507305155.9,286047000.7,N
1507305175.7,286047000.7,N
1507305195.5,286047000.7,N
1507305215.4,286047000.4,N
1507305235.2,286047000.0,N
1507305255.1,286047004.4,Y
1507305256.0,286047004.4,P
1507305275.8,286047002.2,N
1507305295.6,286047002.8,N
1507305315.5,286047000.7,N
1507305335.3,286047001.1,N
1507305355.2,286047001.1,N
1507305375.9,286047000.3,N
1507305395.7,286047000.3,N
1507305415.6,286047000.8,N
1507305435.4,286047000.8,N
1507305455.2,286046998.8,N
1507305475.1,286046996.7,N
1507305476.0,286046996.7,N
1507305495.8,286046999.1,N
1507305515.7,286046998.2,N
1507305535.5,286046998.6,N
1507305555.3,286046998.3,N
1507305575.2,286046998.7,N
1507305595.0,286046998.6,N
1507305595.9,286046998.6,N
